• Join FlightAware (Why Join?)
  • Login
  • US Flag 
03:56PM EDT


 

Airport Tracker/Info


-or-


 

Live Flight TrackerFlight Track Log ✈ N812NW ✈ 08-Apr-2013 ✈ LIRF / FCO - KATL

Flight Track Log - Related Links

Times and Time Zones

All times are in EDT time to prevent confusion due to time zone crossing. See the N812NW flight status page for this flight to view local times or setup timezone preferences in your user account.

Time Position Orientation Groundspeed Altitude Reporting Facility
EDT Latitude Longitude Course Direction KTS MPH feet Rate Location/Type
05:39AM 41.8451 12.1013 290° West  Level FlightAware Approximate
05:40AM 41.9041 11.9633 294° West  Level Estimated
05:41AM 41.9630 11.8249 301° West  Level Estimated
05:42AM 42.0217 11.6863 299° West  Level Estimated
05:43AM 42.0802 11.5475 298° West  Level Estimated
05:44AM 42.1378 11.4078 299° West  Level FlightAware Approximate
05:45AM 42.1952 11.2678 299° West  Level FlightAware Approximate
05:46AM 42.2532 11.1282 302° West  Level Estimated
05:47AM 42.3162 10.9924 302° West  Level FlightAware Approximate
05:48AM 42.3739 10.8523 294° West  Level Estimated
05:49AM 42.4314 10.7119 302° West  Level Estimated
05:50AM 42.4888 10.5712 297° West  Level Estimated
05:51AM 42.5439 10.4289 298° West  Level FlightAware Approximate
05:52AM 42.6009 10.2877 300° West  Level Estimated
05:53AM 42.6577 10.1463 300° West  Level Estimated
05:54AM 42.7142 10.0162 301° West  Level FlightAware Approximate
05:55AM 42.7671 9.8833 298° West  Level Estimated
05:56AM 42.8190 9.7496 298° West  Level FlightAware Approximate
05:57AM 42.8709 9.6157 298° West  Level FlightAware Approximate
05:58AM 42.9235 9.4815 298° West  Level Estimated
05:59AM 42.9745 9.3460 297° West  Level FlightAware Approximate
06:00AM 43.0269 9.2113 300° West  Level Estimated
06:01AM 43.0791 9.0764 298° West  Level Estimated
06:02AM 43.1314 8.9416 298° West  Level FlightAware Approximate
06:03AM 43.1836 8.8064 298° West  Level FlightAware Approximate
06:04AM 43.2357 8.6711 298° West  Level FlightAware Approximate
06:05AM 43.2876 8.5355 298° West  Level FlightAware Approximate
06:06AM 43.3393 8.3997 298° West  Level FlightAware Approximate
06:07AM 43.3908 8.2636 298° West  Level FlightAware Approximate
06:08AM 43.4422 8.1274 297° West  Level FlightAware Approximate
06:09AM 43.4934 7.9909 297° West  Level FlightAware Approximate
06:10AM 43.5445 7.8541 297° West  Level FlightAware Approximate
06:11AM 43.5954 7.7172 297° West  Level FlightAware Approximate
06:12AM 43.6462 7.5800 297° West  Level FlightAware Approximate
06:13AM 43.6967 7.4426 297° West  Level FlightAware Approximate
06:14AM 43.7472 7.3049 297° West  Level FlightAware Approximate
06:15AM 43.7974 7.1670 297° West  Level FlightAware Approximate
06:16AM 43.8475 7.0289 297° West  Level FlightAware Approximate
06:17AM 43.8963 6.8936 297° West  Level FlightAware Approximate
06:17AM 41.7620 12.2420 297° West 173 199 1,700  Level FlightAware
06:17AM 41.7460 12.2280 213° Southwest 175 201 2,500 1,800 Climbing FlightAware
06:17AM 41.7450 12.2100 266° West 165 190 2,900 1,200 Climbing FlightAware
06:18AM 41.7470 12.1960 281° West 165 190 3,200 780 Climbing FlightAware
06:18AM 41.7580 12.1650 295° West 188 216 3,500 600 Climbing FlightAware
06:18AM 41.7730 12.1330 302° West 219 252 3,800 660 Climbing FlightAware
06:19AM 41.7900 12.0980 303° West 252 290 4,200 840 Climbing FlightAware
06:19AM 41.8030 12.0660 299° West 274 315 4,600 1,020 Climbing FlightAware
06:20AM 41.8100 12.0300 285° West 294 338 4,900 1,680 Climbing FlightAware
06:20AM 41.8190 11.9770 283° West 308 354 5,900 2,160 Climbing FlightAware
06:20AM 41.8300 11.9390 291° West 312 359 6,700 2,820 Climbing FlightAware
06:21AM 41.8520 11.8790 296° West 308 354 8,500 2,280 Climbing FlightAware
06:21AM 41.8640 11.8480 297° West 311 358 9,000 1,680 Climbing FlightAware
06:22AM 41.8970 11.7580 296° West 329 379 10,500 1,740 Climbing FlightAware
06:23AM 41.9320 11.6520 294° West 351 404 11,900 1,620 Climbing FlightAware
06:24AM 41.9600 11.5660 294° West 360 414 13,100 1,860 Climbing FlightAware
06:24AM 41.9880 11.4780 293° West 365 420 14,400 1,680 Climbing FlightAware
06:25AM 42.0200 11.3810 294° West 379 436 15,500 1,620 Climbing FlightAware
06:26AM 42.0440 11.3050 293° West 376 433 16,700 1,800 Climbing FlightAware
06:27AM 42.0710 11.2230 294° West 374 430 17,900 1,680 Climbing FlightAware
06:27AM 42.1130 11.0940 294° West 382 440 19,300 1,440 Climbing FlightAware
06:28AM 42.1410 11.0080 294° West 389 448 20,100 1,080 Climbing FlightAware
06:29AM 42.1770 10.9500 310° West 400 460 20,600 1,080 Climbing FlightAware
06:29AM 42.2360 10.8920 324° Northwest 406 467 21,400 1,200 Climbing FlightAware
06:30AM 42.3030 10.8280 325° Northwest 411 473 22,300 1,200 Climbing FlightAware
06:31AM 42.3620 10.7730 325° Northwest 414 476 23,100 1,020 Climbing FlightAware
06:31AM 42.4300 10.7080 325° Northwest 422 486 23,700 960 Climbing FlightAware
06:32AM 42.4950 10.6340 320° Northwest 415 478 24,500 1,020 Climbing FlightAware
06:33AM 42.5400 10.5460 305° West 416 479 25,200 1,080 Climbing FlightAware
06:33AM 42.5910 10.4490 306° West 417 480 26,100 900 Climbing FlightAware
06:34AM 42.6340 10.3670 305° West 421 484 26,500 720 Climbing FlightAware
06:35AM 42.6810 10.2780 306° West 424 488 27,100 720 Climbing FlightAware
06:37AM 42.7697 10.0564 300° West  Level Estimated
06:38AM 42.8217 9.9258 298° West  Level Estimated
06:39AM 42.8478 9.7814 284° West  Level FlightAware Approximate
06:40AM 42.8738 9.6369 284° West  Level FlightAware Approximate
06:40AM 43.0140 9.5640 284° West 418 481 31,100  Level FlightAware
06:41AM 43.0390 9.4750 291° West 421 484 31,300 420 Climbing FlightAware
06:41AM 43.0750 9.3490 291° West 424 488 31,700 660 Climbing FlightAware
06:42AM 43.1080 9.2350 292° West 418 481 32,400 840 Climbing FlightAware
06:43AM 43.1350 9.1390 291° West 414 476 32,900 720 Climbing FlightAware
06:44AM 43.1630 9.0410 291° West 411 473 33,400 660 Climbing FlightAware
06:44AM 43.1940 8.9330 292° West 408 470 33,900 420 Climbing FlightAware
06:45AM 43.2210 8.8370 291° West 409 471 34,000 60 Climbing FlightAware
06:46AM 43.2490 8.7370 291° West 406 467 34,000  Level FlightAware
06:46AM 43.2780 8.6330 291° West 404 465 34,000  Level FlightAware
06:47AM 43.3040 8.5410 291° West 405 466 34,000  Level FlightAware
06:48AM 43.3300 8.4470 291° West 404 465 34,000  Level FlightAware
06:48AM 43.3580 8.3460 291° West 403 464 34,000  Level FlightAware
06:49AM 43.3840 8.2520 291° West 403 464 34,000  Level FlightAware
06:50AM 43.4160 8.1350 291° West 402 463 34,000  Level FlightAware
06:51AM 43.4420 8.0410 291° West 401 461 34,000  Level FlightAware
06:51AM 43.4710 7.9330 290° West 401 461 34,000  Level FlightAware
06:52AM 43.4970 7.8370 291° West 400 460 34,000  Level FlightAware
06:53AM 43.5230 7.7410 291° West 399 459 34,000  Level FlightAware
06:53AM 43.5520 7.6380 291° West 399 459 34,000  Level FlightAware
06:54AM 43.5900 7.5490 301° West 404 465 34,000  Level FlightAware
06:55AM 43.6370 7.4500 303° West 404 465 34,000  Level FlightAware
06:55AM 43.6880 7.3730 313° West 422 486 34,000  Level FlightAware
06:56AM 43.7550 7.3160 328° Northwest 427 491 34,000  Level FlightAware
06:57AM 43.8290 7.2520 328° Northwest 426 490 34,000  Level FlightAware
06:58AM 43.8970 7.1950 329° Northwest 425 489 34,000  Level FlightAware
06:58AM 43.9760 7.1280 329° Northwest 423 487 34,000  Level FlightAware
07:01AM 44.0825 6.8290 296° West  Level Estimated
07:02AM 44.1307 6.6928 296° West  Level Estimated
07:03AM 44.1787 6.5563 296° West  Level Estimated
07:04AM 44.2265 6.4196 296° West  Level Estimated
07:05AM 44.2742 6.2827 296° West  Level Estimated
07:06AM 44.3217 6.1456 296° West  Level Estimated
07:07AM 44.3690 6.0082 296° West  Level Estimated
07:08AM 44.4162 5.8706 296° West  Level Estimated
07:09AM 44.4632 5.7328 296° West  Level Estimated
07:09AM 45.0800 6.1710 295° West 427 491 34,000  Level FlightAware
07:10AM 44.5101 5.5948 295° West  Level Estimated
07:10AM 45.1540 6.1050 328° Northwest 426 490 34,000  Level FlightAware
07:11AM 45.2260 6.0410 328° Northwest 424 488 34,000  Level FlightAware
07:12AM 45.2880 5.9860 328° Northwest 426 490 34,000  Level FlightAware
07:12AM 45.3490 5.9310 328° Northwest 427 491 34,000  Level FlightAware
07:13AM 45.4300 5.8590 328° Northwest 425 489 34,000  Level FlightAware
07:14AM 45.5010 5.7950 328° Northwest 426 490 34,000  Level FlightAware
07:14AM 45.5720 5.7310 328° Northwest 429 494 34,000  Level FlightAware
07:15AM 45.6690 5.6430 328° Northwest 432 497 34,000  Level FlightAware
07:16AM 45.7360 5.5820 328° Northwest 432 497 34,000  Level FlightAware
07:17AM 45.8030 5.5210 328° Northwest 431 496 34,000  Level FlightAware
07:17AM 45.8720 5.4580 328° Northwest 430 495 34,000  Level FlightAware
07:18AM 45.9500 5.3870 328° Northwest 430 495 34,000  Level FlightAware
07:19AM 46.0240 5.3190 327° Northwest 431 496 34,000  Level FlightAware
07:19AM 46.0900 5.2580 327° Northwest 433 498 34,000  Level FlightAware
07:20AM 46.1620 5.1920 328° Northwest 434 499 34,000  Level FlightAware
07:21AM 46.2200 5.1370 327° Northwest 434 499 34,000  Level FlightAware
07:22AM 46.3010 5.0610 327° Northwest 436 502 34,000  Level FlightAware
07:22AM 46.3850 4.9830 327° Northwest 434 499 34,000  Level FlightAware
07:23AM 46.4500 4.9210 327° Northwest 435 501 34,000  Level FlightAware
07:24AM 46.5120 4.8630 327° Northwest 435 501 34,000  Level FlightAware
07:24AM 46.5950 4.7850 327° Northwest 438 504 34,000  Level FlightAware
07:25AM 46.6530 4.7300 327° Northwest 440 506 34,000  Level FlightAware
07:26AM 46.7340 4.6520 327° Northwest 441 507 34,000  Level FlightAware
07:26AM 46.8010 4.5880 327° Northwest 443 510 34,000  Level FlightAware
07:27AM 46.8770 4.5160 327° Northwest 444 511 34,000  Level FlightAware
07:28AM 46.9510 4.4450 327° Northwest 445 512 34,000  Level FlightAware
07:29AM 47.0220 4.3770 327° Northwest 447 514 34,000  Level FlightAware
07:29AM 47.0980 4.3230 334° Northwest 450 518 34,000  Level FlightAware
07:30AM 47.1800 4.2700 336° Northwest 449 517 34,000  Level FlightAware
07:31AM 47.2700 4.2110 336° Northwest 450 518 34,000  Level FlightAware
07:31AM 47.3470 4.1590 335° Northwest 449 517 34,000  Level FlightAware
07:32AM 47.4170 4.0860 325° Northwest 441 507 34,000  Level FlightAware
07:33AM 47.4870 4.0110 324° Northwest 443 510 34,000  Level FlightAware
07:33AM 47.5480 3.9450 324° Northwest 442 509 34,000  Level FlightAware
07:34AM 47.6250 3.8610 324° Northwest 442 509 34,000  Level FlightAware
07:35AM 47.6950 3.7850 324° Northwest 444 511 34,000  Level FlightAware
07:36AM 47.7580 3.7160 324° Northwest 445 512 34,000  Level FlightAware
07:36AM 47.8340 3.6320 323° Northwest 444 511 34,000  Level FlightAware
07:37AM 47.8950 3.5650 324° Northwest 444 511 34,000  Level FlightAware
07:38AM 47.9740 3.4780 324° Northwest 442 509 34,000  Level FlightAware
07:38AM 48.0400 3.4060 324° Northwest 440 506 34,000  Level FlightAware
07:39AM 48.1080 3.3300 323° Northwest 439 505 34,000  Level FlightAware
07:40AM 48.1790 3.2510 323° Northwest 440 506 34,000  Level FlightAware
07:40AM 48.2460 3.1740 323° Northwest 440 506 34,000  Level FlightAware
07:41AM 48.2900 3.0690 302° West 428 493 34,000  Level FlightAware
07:42AM 48.3140 2.9480 287° West 430 495 34,000  Level FlightAware
07:43AM 48.3370 2.8380 287° West 431 496 34,000  Level FlightAware
07:43AM 48.3620 2.7210 288° West 432 497 34,000  Level FlightAware
07:44AM 48.3890 2.5940 288° West 432 497 34,000  Level FlightAware
07:45AM 48.4150 2.4700 288° West 430 495 34,000  Level FlightAware
07:45AM 48.4360 2.3660 287° West 430 495 34,000  Level FlightAware
07:46AM 48.4620 2.2380 287° West 428 493 34,000  Level FlightAware
07:47AM 48.4880 2.1130 287° West 427 491 34,000  Level FlightAware
07:47AM 48.5110 1.9970 287° West 425 489 34,000 -1,680 Level FlightAware
07:48AM 48.5240 1.9329 287° West 474 545 32,400 -2,640 Descending FlightAware UK
07:48AM 48.5344 1.8824 287° West 472 543 32,400 3,660 Level FlightAware UK
07:48AM 48.5360 1.8720 287° West 422 486 34,000  Climbing FlightAware
07:48AM 48.5482 1.8156 287° West 472 543 32,400 -2,940 Descending FlightAware UK
07:49AM 48.5583 1.7651 287° West 472 543 32,400 3,840 Level FlightAware UK
07:49AM 48.5610 1.7520 287° West 421 484 34,000  Climbing FlightAware
07:49AM 48.5716 1.6975 287° West 472 543 32,400  Descending FlightAware UK
07:50AM 48.5850 1.6270 287° West 421 484 34,000  Climbing FlightAware
07:50AM 48.5983 1.5633 287° West 472 543 32,400  Descending FlightAware UK
07:50AM 48.6080 1.5110 287° West 421 484 34,000  Climbing FlightAware
07:51AM 48.6215 1.4450 287° West 470 541 32,400  Descending FlightAware UK
07:51AM 48.6300 1.3990 287° West 422 486 34,000  Climbing FlightAware
07:51AM 48.6414 1.3435 287° West 472 543 32,400 -2,700 Descending FlightAware UK
07:52AM 48.6511 1.2931 286° West 474 545 32,400 3,540 Level FlightAware UK
07:52AM 48.6550 1.2730 286° West 424 488 34,000  Climbing FlightAware
07:52AM 48.6643 1.2248 286° West 474 545 32,400 -2,520 Descending FlightAware UK
07:52AM 48.6777 1.1569 287° West 474 545 32,400 3,840 Level FlightAware UK
07:52AM 48.6760 1.1630 287° West 423 487 34,000  Climbing FlightAware
07:53AM 48.6908 1.0887 287° West 472 543 32,400  Descending FlightAware UK
07:53AM 48.6990 1.0450 287° West 421 484 34,000  Climbing FlightAware
07:53AM 48.7105 0.9869 287° West 470 541 32,400 -2,640 Descending FlightAware UK
07:54AM 48.7201 0.9365 286° West 470 541 32,400 3,660 Level FlightAware UK
07:54AM 48.7230 0.9210 286° West 422 486 34,000  Climbing FlightAware
07:54AM 48.7330 0.8691 286° West 472 543 32,400 -2,880 Descending FlightAware UK
07:54AM 48.7429 0.8174 286° West 472 543 32,400 3,960 Level FlightAware UK
07:54AM 48.7460 0.8020 286° West 424 488 34,000  Climbing FlightAware
07:55AM 48.7559 0.7496 286° West 474 545 32,400 -2,040 Descending FlightAware UK
07:55AM 48.7690 0.6803 286° West 474 545 32,600 3,720 Climbing FlightAware UK
07:55AM 48.7690 0.6800 286° West 426 490 34,100 300 Climbing FlightAware
07:55AM 48.7788 0.6287 286° West 474 545 32,700 -1,860 Descending FlightAware UK
07:56AM 48.7915 0.5595 286° West 472 543 32,900 4,320 Climbing FlightAware UK
07:56AM 48.7910 0.5640 286° West 426 490 34,500 660 Climbing FlightAware
07:56AM 48.8012 0.5085 286° West 472 543 33,100 -2,280 Descending FlightAware UK
07:56AM 48.8109 0.4572 286° West 474 545 33,200 4,140 Climbing FlightAware UK
07:57AM 48.8120 0.4510 286° West 427 491 34,700 240 Climbing FlightAware
07:57AM 48.8236 0.3884 286° West 474 545 33,300 -2,160 Descending FlightAware UK
07:57AM 48.8333 0.3364 286° West 472 543 33,400 3,900 Climbing FlightAware UK
07:57AM 48.8370 0.3120 286° West 430 495 35,000  Climbing FlightAware
07:58AM 48.8525 0.2321 286° West 476 548 33,400  Descending FlightAware UK
07:58AM 48.8560 0.2100 286° West 432 497 35,000  Climbing FlightAware
07:59AM 48.8784 0.0917 286° West 474 545 33,400  Descending FlightAware UK
07:59AM 48.8820 0.0710 286° West 432 497 35,000  Climbing FlightAware
07:59AM 48.8935 0.0033 286° West 472 543 33,400  Descending FlightAware UK
07:59AM 48.9030 -0.0450 286° West 433 498 35,000  Climbing FlightAware
08:00AM 48.9123 -0.1014 286° West 476 548 33,400 -2,880 Descending FlightAware UK
08:00AM 48.9219 -0.1542 286° West 476 548 33,400 3,960 Level FlightAware UK
08:00AM 48.9250 -0.1680 286° West 434 499 35,000  Climbing FlightAware
08:00AM 48.9348 -0.2246 286° West 474 545 33,400 -2,340 Descending FlightAware UK
08:01AM 48.9475 -0.2952 285° West 476 548 33,400 2,280 Level FlightAware UK
08:01AM 48.9570 -0.3440 285° West 433 498 35,000  Climbing FlightAware
08:01AM 48.9662 -0.4013 285° West 478 550 33,400 -2,700 Descending FlightAware UK
08:02AM 48.9756 -0.4537 285° West 474 545 33,400 4,320 Level FlightAware UK
08:02AM 48.9770 -0.4580 285° West 433 498 35,000 2,460 Climbing FlightAware
08:02AM 48.9950 -0.5590 285° West 433 498 35,000 -1,320 Level FlightAware
08:03AM 49.0158 -0.6836 285° West 476 548 33,400  Descending FlightAware UK
08:03AM 49.0210 -0.7080 285° West 433 498 35,000  Climbing FlightAware
08:03AM 49.0313 -0.7719 285° West 476 548 33,400 -2,640 Descending FlightAware UK
08:04AM 49.0406 -0.8241 285° West 476 548 33,400 4,560 Level FlightAware UK
08:04AM 49.0420 -0.8270 285° West 431 496 35,000  Climbing FlightAware
08:04AM 49.0528 -0.8946 285° West 476 548 33,400  Descending FlightAware UK
08:04AM 49.0620 -0.9450 285° West 431 496 35,000  Climbing FlightAware
08:05AM 49.0742 -1.0180 285° West 474 545 33,400  Descending FlightAware UK
08:05AM 49.0850 -1.0750 285° West 430 495 35,000  Climbing FlightAware
08:06AM 49.0952 -1.1408 285° West 474 545 33,400  Descending FlightAware UK
08:06AM 49.1010 -1.1710 284° West 429 494 35,000  Climbing FlightAware
08:06AM 49.1040 -1.1936 284° West 474 545 33,400 -4,800 Descending FlightAware UK
08:06AM 49.1126 -1.2456 284° West 472 543 33,400  Level FlightAware UK
08:06AM 49.1217 -1.2987 285° West 472 543 33,400 3,840 Level FlightAware UK
08:07AM 49.1240 -1.3100 285° West 427 491 35,000  Climbing FlightAware
08:07AM 49.1335 -1.3681 285° West 476 548 33,400 -2,760 Descending FlightAware UK
08:07AM 49.1426 -1.4206 285° West 476 548 33,400 3,420 Level FlightAware UK
08:07AM 49.1460 -1.4380 285° West 427 491 35,000  Climbing FlightAware
08:08AM 49.1628 -1.5426 285° West 472 543 33,400  Descending FlightAware UK
08:08AM 49.1660 -1.5570 285° West 426 490 35,000  Climbing FlightAware
08:08AM 49.1804 -1.6467 285° West 470 541 33,400  Descending FlightAware UK
08:09AM 49.1840 -1.6660 285° West 424 488 35,000 1,680 Climbing FlightAware
08:09AM 49.2070 -1.8080 284° West 425 489 35,000 -1,500 Level FlightAware
08:10AM 49.2178 -1.8746 284° West 472 543 33,400 -2,520 Descending FlightAware UK
08:10AM 49.2267 -1.9271 285° West 472 543 33,400  Level FlightAware UK
08:10AM 49.2383 -1.9972 284° West 472 543 33,400 1,680 Level FlightAware UK
08:11AM 49.2500 -2.0700 284° West 426 490 35,000  Climbing FlightAware
08:12AM 49.2684 -2.1891 284° West 474 545 33,400  Descending FlightAware UK
08:12AM 49.2690 -2.1910 284° West 426 490 35,000  Climbing FlightAware
08:12AM 49.2855 -2.2939 284° West 474 545 33,400  Descending FlightAware UK
08:12AM 49.2930 -2.3390 284° West 424 488 35,000  Climbing FlightAware
08:13AM 49.3049 -2.4154 284° West 472 543 33,400  Descending FlightAware UK
08:13AM 49.3120 -2.4560 284° West 421 484 35,000  Climbing FlightAware
08:14AM 49.3240 -2.5379 284° West 470 541 33,400 -2,400 Descending FlightAware UK
08:14AM 49.3320 -2.5902 283° West 470 541 33,400  Level FlightAware UK
08:14AM 49.3401 -2.6425 284° West 470 541 33,400  Level FlightAware UK
08:14AM 49.3483 -2.6941 284° West 470 541 33,400 3,060 Level FlightAware UK
08:15AM 49.3530 -2.7220 284° West 422 486 35,000  Climbing FlightAware
08:15AM 49.3674 -2.8162 284° West 472 543 33,400  Descending FlightAware UK
08:15AM 49.3710 -2.8380 284° West 423 487 35,000  Climbing FlightAware
08:16AM 49.3808 -2.9039 284° West 472 543 33,400 -1,980 Descending FlightAware UK
08:16AM 49.3945 -2.9915 283° West 472 543 33,400 2,340 Level FlightAware UK
08:16AM 49.3990 -3.0200 283° West 423 487 35,000  Climbing FlightAware
08:16AM 49.4023 -3.0442 283° West 474 545 33,400 -5,100 Descending FlightAware UK
08:17AM 49.4076 -3.0793 283° West 474 545 33,400  Level FlightAware UK
08:17AM 49.4182 -3.1489 283° West 474 545 33,400  Level FlightAware UK
08:18AM 49.4315 -3.2363 283° West 472 543 33,400 3,000 Level FlightAware UK
08:18AM 49.4310 -3.2290 283° West 421 484 35,000  Climbing FlightAware
08:18AM 49.4419 -3.3061 283° West 472 543 33,400 -2,400 Descending FlightAware UK
08:18AM 49.4497 -3.3583 283° West 470 541 33,400  Level FlightAware UK
08:19AM 49.4574 -3.4099 283° West 470 541 33,400  Level FlightAware UK
08:19AM 49.4652 -3.4620 283° West 470 541 33,400 3,000 Level FlightAware UK
08:19AM 49.4680 -3.4800 283° West 417 480 35,000  Climbing FlightAware
08:19AM 49.4807 -3.5657 283° West 472 543 33,400  Descending FlightAware UK
08:20AM 49.4860 -3.6000 283° West 417 480 35,000  Climbing FlightAware
08:20AM 49.4984 -3.6877 283° West 470 541 33,400  Descending FlightAware UK
08:20AM 49.5050 -3.7310 283° West 420 483 35,000  Climbing FlightAware
08:21AM 49.5136 -3.7923 283° West 470 541 33,400 -2,520 Descending FlightAware UK
08:21AM 49.5237 -3.8621 283° West 470 541 33,400 3,840 Level FlightAware UK
08:21AM 49.5230 -3.8560 283° West 418 481 35,000  Climbing FlightAware
08:22AM 49.5364 -3.9495 283° West 470 541 33,400 -1,860 Descending FlightAware UK
08:22AM 49.5466 -4.0196 283° West 470 541 33,400  Level FlightAware UK
08:22AM 49.5540 -4.0722 282° West 470 541 33,400  Level FlightAware UK
08:23AM 49.5613 -4.1242 282° West 470 541 33,400  Level FlightAware UK
08:23AM 49.5682 -4.1766 282° West 472 543 33,400  Level FlightAware UK
08:23AM 49.5755 -4.2291 282° West 470 541 33,400  Level FlightAware UK
08:24AM 49.5838 -4.2816 284° West 470 541 33,400  Level FlightAware UK
08:24AM 49.5980 -4.3314 294° West 470 541 33,400  Level FlightAware UK
08:24AM 49.6121 -4.3808 294° West 468 539 33,400  Level FlightAware UK
08:24AM 49.6279 -4.4285 297° West 470 541 33,400  Level FlightAware UK
08:25AM 49.6468 -4.4740 303° West 470 541 33,400  Level FlightAware UK
08:25AM 49.6665 -4.5193 304° West 470 541 33,400  Level FlightAware UK
08:25AM 49.6859 -4.5645 304° West 470 541 33,400  Level FlightAware UK
08:26AM 49.7049 -4.6101 303° West 470 541 33,400  Level FlightAware UK
08:26AM 49.7237 -4.6560 302° West 470 541 33,400  Level FlightAware UK
08:26AM 49.7424 -4.7022 302° West 470 541 33,400  Level FlightAware UK
08:27AM 49.7610 -4.7482 302° West 470 541 33,400  Level FlightAware UK
08:27AM 49.7796 -4.7944 302° West 470 541 33,400  Level FlightAware UK
08:27AM 49.7982 -4.8406 302° West 470 541 33,400  Level FlightAware UK
08:27AM 49.8168 -4.8868 302° West 470 541 33,400  Level FlightAware UK
08:28AM 49.8354 -4.9325 302° West 470 541 33,400  Level FlightAware UK
08:28AM 49.8540 -4.9788 302° West 470 541 33,400  Level FlightAware UK
08:29AM 49.8849 -5.0563 302° West 470 541 33,400  Level FlightAware UK
08:29AM 49.9035 -5.1028 302° West 472 543 33,400  Level FlightAware UK
08:29AM 49.9221 -5.1494 302° West 472 543 33,400  Level FlightAware UK
08:30AM 49.9469 -5.2114 302° West 470 541 33,400  Level FlightAware UK
08:30AM 49.9716 -5.2736 302° West 472 543 33,400  Level FlightAware UK
08:30AM 49.9901 -5.3202 302° West 472 543 33,400  Level FlightAware UK
08:31AM 50.0088 -5.3667 302° West 470 541 33,400 4,560 Level FlightAware UK
08:31AM 50.0050 -5.3570 302° West 425 489 35,000  Climbing FlightAware
08:31AM 50.0274 -5.4135 302° West 470 541 33,400 -2,940 Descending FlightAware UK
08:31AM 50.0458 -5.4603 301° West 470 541 33,400  Level FlightAware UK
08:31AM 50.0641 -5.5072 301° West 470 541 33,400  Level FlightAware UK
08:32AM 50.0824 -5.5541 301° West 470 541 33,400  Level FlightAware UK
08:32AM 50.1007 -5.6010 301° West 470 541 33,400  Level FlightAware UK
08:32AM 50.1190 -5.6478 301° West 470 541 33,400  Level FlightAware UK
08:33AM 50.1374 -5.6947 301° West 470 541 33,400  Level FlightAware UK
08:33AM 50.1558 -5.7417 302° West 470 541 33,400  Level FlightAware UK
08:33AM 50.1742 -5.7889 301° West 472 543 33,400  Level FlightAware UK
08:34AM 50.1927 -5.8360 302° West 470 541 33,400  Level FlightAware UK
08:34AM 50.2111 -5.8834 301° West 472 543 33,400  Level FlightAware UK
08:34AM 50.2291 -5.9304 301° West 472 543 33,400  Level FlightAware UK
08:34AM 50.2475 -5.9780 301° West 472 543 33,400  Level FlightAware UK
08:35AM 50.2658 -6.0257 301° West 472 543 33,400 3,540 Level FlightAware UK
08:35AM 50.2730 -6.0420 301° West 428 493 35,000  Climbing FlightAware
08:35AM 50.2903 -6.0893 301° West 472 543 33,400 -2,940 Descending FlightAware UK
08:35AM 50.3085 -6.1372 301° West 472 543 33,400 3,060 Level FlightAware UK
08:36AM 50.3190 -6.1620 301° West 429 494 35,000  Climbing FlightAware
08:36AM 50.3390 -6.2171 301° West 472 543 33,400 -2,760 Descending FlightAware UK
08:36AM 50.3576 -6.2649 301° West 472 543 33,400 4,140 Level FlightAware UK
08:36AM 50.3600 -6.2690 301° West 429 494 35,000  Climbing FlightAware
08:37AM 50.3822 -6.3288 301° West 472 543 33,400 -2,640 Descending FlightAware UK
08:37AM 50.4005 -6.3767 301° West 472 543 33,400 3,660 Level FlightAware UK
08:37AM 50.4080 -6.3940 301° West 428 493 35,000  Climbing FlightAware
08:37AM 50.4248 -6.4407 301° West 470 541 33,400 -2,880 Descending FlightAware UK
08:38AM 50.4430 -6.4888 301° West 470 541 33,400 3,960 Level FlightAware UK
08:38AM 50.4480 -6.5000 301° West 427 491 35,000  Climbing FlightAware
08:38AM 50.4672 -6.5525 301° West 470 541 33,400 -2,700 Descending FlightAware UK
08:38AM 50.4853 -6.6004 301° West 470 541 33,400 4,320 Level FlightAware UK
08:38AM 50.4870 -6.6030 301° West 427 491 35,000  Climbing FlightAware
08:39AM 50.5094 -6.6644 301° West 470 541 33,400 -2,580 Descending FlightAware UK
08:39AM 50.5275 -6.7123 301° West 470 541 33,400 3,840 Level FlightAware UK
08:39AM 50.5330 -6.7250 301° West 426 490 35,000  Climbing FlightAware
08:39AM 50.5515 -6.7764 301° West 470 541 33,400 -2,760 Descending FlightAware UK
08:40AM 50.5694 -6.8245 300° West 470 541 33,400 4,140 Level FlightAware UK
08:40AM 50.5730 -6.8320 300° West 427 491 35,000  Climbing FlightAware
08:40AM 50.5933 -6.8888 300° West 468 539 33,400 -2,640 Descending FlightAware UK
08:40AM 50.6113 -6.9370 300° West 470 541 33,400 3,660 Level FlightAware UK
08:41AM 50.6190 -6.9550 300° West 427 491 35,000  Climbing FlightAware
08:41AM 50.6352 -7.0014 300° West 470 541 33,400 -2,880 Descending FlightAware UK
08:41AM 50.6531 -7.0498 300° West 470 541 33,400 3,960 Level FlightAware UK
08:41AM 50.6590 -7.0620 300° West 427 491 35,000  Climbing FlightAware
08:42AM 50.6769 -7.1138 300° West 470 541 33,400 -2,700 Descending FlightAware UK
08:42AM 50.6948 -7.1623 300° West 470 541 33,400 4,320 Level FlightAware UK
08:42AM 50.6970 -7.1660 300° West 427 491 35,000  Climbing FlightAware
08:42AM 50.7184 -7.2273 300° West 470 541 33,400 -2,580 Descending FlightAware UK
08:43AM 50.7350 -7.2769 298° West 468 539 33,400 3,840 Level FlightAware UK
08:43AM 50.7400 -7.2920 298° West 425 489 35,000  Climbing FlightAware
08:43AM 50.7567 -7.3431 298° West 468 539 33,400 -2,760 Descending FlightAware UK
08:43AM 50.7729 -7.3926 297° West 468 539 33,400 4,140 Level FlightAware UK
08:43AM 50.7760 -7.3990 297° West 425 489 35,000  Climbing FlightAware
08:44AM 50.7950 -7.4583 297° West 468 539 33,400 -2,640 Descending FlightAware UK
08:44AM 50.8116 -7.5073 298° West 468 539 33,400 3,660 Level FlightAware UK
08:44AM 50.8190 -7.5270 298° West 424 488 35,000  Climbing FlightAware
08:44AM 50.8338 -7.5728 298° West 468 539 33,400 -2,880 Descending FlightAware UK
08:45AM 50.8504 -7.6220 298° West 468 539 33,400 3,960 Level FlightAware UK
08:45AM 50.8560 -7.6360 298° West 424 488 35,000  Climbing FlightAware
08:45AM 50.8727 -7.6874 298° West 468 539 33,400 -2,700 Descending FlightAware UK
08:45AM 50.8894 -7.7367 298° West 468 539 33,400 4,320 Level FlightAware UK
08:45AM 50.8930 -7.7440 298° West 425 489 35,000  Climbing FlightAware
08:46AM 50.9116 -7.8026 298° West 468 539 33,400 -2,580 Descending FlightAware UK
08:46AM 50.9282 -7.8521 298° West 468 539 33,400 3,840 Level FlightAware UK
08:46AM 50.9330 -7.8650 298° West 425 489 35,000  Climbing FlightAware
08:46AM 50.9504 -7.9182 298° West 468 539 33,400 -2,760 Descending FlightAware UK
08:47AM 50.9669 -7.9678 298° West 466 536 33,400 4,140 Level FlightAware UK
08:47AM 50.9700 -7.9750 298° West 424 488 35,000  Climbing FlightAware
08:47AM 50.9890 -8.0339 298° West 466 536 33,400 -2,640 Descending FlightAware UK
08:47AM 51.0054 -8.0836 298° West 466 536 33,400 3,060 Level FlightAware UK
08:48AM 51.0140 -8.1070 298° West 425 489 35,000  Climbing FlightAware
08:48AM 51.0219 -8.1332 298° West 468 539 33,400 -5,700 Descending FlightAware UK
08:48AM 51.0330 -8.1663 298° West 466 536 33,400  Level FlightAware UK
08:48AM 51.0495 -8.2159 298° West 466 536 33,400 2,880 Level FlightAware UK
08:48AM 51.0620 -8.2530 298° West 425 489 35,000  Climbing FlightAware
08:49AM 51.0765 -8.2985 298° West 464 534 33,400 -2,940 Descending FlightAware UK
08:49AM 51.0929 -8.3485 297° West 466 536 33,400 3,840 Level FlightAware UK
08:49AM 51.0980 -8.3640 297° West 426 490 35,000  Climbing FlightAware
08:49AM 51.1148 -8.4151 297° West 468 539 33,400 -2,760 Descending FlightAware UK
08:50AM 51.1312 -8.4653 298° West 468 539 33,400 4,140 Level FlightAware UK
08:50AM 51.1320 -8.4660 298° West 428 493 35,000  Climbing FlightAware
08:50AM 51.1533 -8.5324 298° West 468 539 33,400 -2,640 Descending FlightAware UK
08:50AM 51.1697 -8.5828 297° West 468 539 33,400 4,560 Level FlightAware UK
08:50AM 51.1680 -8.5780 297° West 428 493 35,000  Climbing FlightAware
08:51AM 51.1862 -8.6332 297° West 468 539 33,400 -2,940 Descending FlightAware UK
08:51AM 51.2027 -8.6837 298° West 468 539 33,400 3,840 Level FlightAware UK
08:51AM 51.2050 -8.6890 298° West 429 494 35,000  Climbing FlightAware
08:51AM 51.2247 -8.7512 298° West 468 539 33,400 -2,760 Descending FlightAware UK
08:52AM 51.2411 -8.8019 297° West 468 539 33,400 2,880 Level FlightAware UK
08:52AM 51.2530 -8.8390 297° West 429 494 35,000  Climbing FlightAware
08:52AM 51.2682 -8.8866 297° West 466 536 33,400 -2,940 Descending FlightAware UK
08:53AM 51.2844 -8.9374 297° West 466 536 33,400 3,840 Level FlightAware UK
08:53AM 51.2870 -8.9440 297° West 428 493 35,000  Climbing FlightAware
08:53AM 51.3061 -9.0050 297° West 466 536 33,400  Descending FlightAware UK
08:53AM 51.3220 -9.0540 297° West 429 494 35,000 1,380 Climbing FlightAware
08:54AM 51.3610 -9.1770 297° West 430 495 35,000  Level FlightAware
08:55AM 51.4020 -9.3070 297° West 433 498 35,000  Level FlightAware
08:55AM 51.4380 -9.4210 297° West 435 501 35,000  Level FlightAware
08:56AM 51.4780 -9.5480 297° West 436 502 35,000  Level FlightAware
08:57AM 51.5140 -9.6630 297° West 438 504 35,000  Level FlightAware
08:57AM 51.5430 -9.7570 296° West 439 505 35,000  Level FlightAware
08:58AM 51.5870 -9.8990 297° West 439 505 35,000  Level FlightAware
08:59AM 51.6270 -10.0300 296° West 438 504 35,000  Level FlightAware
09:00AM 51.6610 -10.1410 296° West 438 504 35,000  Level FlightAware
09:00AM 51.7030 -10.2790 296° West 438 504 35,000  Level FlightAware
09:01AM 51.7440 -10.4160 296° West 440 506 35,000  Level FlightAware
09:02AM 51.7790 -10.5320 296° West 441 507 35,000  Level FlightAware
09:02AM 51.8140 -10.6460 296° West 441 507 35,000  Level FlightAware
09:03AM 51.8530 -10.7790 295° West 441 507 35,000  Level FlightAware
09:04AM 51.8860 -10.8900 296° West 436 502 35,000  Level FlightAware
09:04AM 51.9160 -10.9910 296° West 438 504 35,000  Level FlightAware
09:05AM 51.9570 -11.1310 295° West 439 505 35,000  Level FlightAware
09:06AM 51.9970 -11.2680 295° West 440 506 35,000  Level FlightAware
09:07AM 52.0380 -11.4080 296° West 440 506 35,000  Level FlightAware
09:07AM 52.0720 -11.5280 295° West 439 505 35,000  Level FlightAware
09:08AM 52.1100 -11.6600 295° West 438 504 35,000  Level FlightAware
09:09AM 52.1450 -11.7820 295° West 440 506 35,000  Level FlightAware
09:09AM 52.1790 -11.9030 295° West 441 507 35,000  Level FlightAware
09:10AM 52.2120 -12.0180 295° West 442 509 35,000  Level FlightAware
09:11AM 52.2400 -12.1280 293° West 442 509 35,000  Level FlightAware
09:12AM 52.2720 -12.2510 293° West 442 509 35,000  Level FlightAware
09:12AM 52.2960 -12.3450 293° West 442 509 35,000 -240 Level FlightAware
09:13AM 52.3580 -12.5420 297° West 444 511 34,700 -360 Descending FlightAware
09:14AM 52.3900 -12.6590 294° West 453 521 34,500 -360 Descending FlightAware
09:15AM 52.4580 -12.9070 294° West 449 517 34,100 -300 Descending FlightAware
09:16AM 52.4910 -13.0330 293° West 449 517 34,000 -120 Descending FlightAware
09:16AM 52.5220 -13.1460 294° West 450 518 34,000  Level FlightAware
09:17AM 52.5580 -13.2810 294° West 450 518 34,000  Level FlightAware
09:18AM 52.5850 -13.3890 292° West 450 518 34,000  Level FlightAware
09:18AM 52.6200 -13.5230 293° West 450 518 34,000  Level FlightAware
09:19AM 52.6480 -13.6300 293° West 450 518 34,000  Level FlightAware
09:20AM 52.6750 -13.7370 293° West 450 518 34,000  Level FlightAware
09:20AM 52.7030 -13.8450 293° West 450 518 34,000  Level FlightAware
09:21AM 52.7310 -13.9530 293° West 450 518 34,000  Level FlightAware
09:22AM 52.7650 -14.0870 293° West 450 518 34,000  Level FlightAware
09:23AM 52.7930 -14.1950 293° West 450 518 34,000  Level FlightAware
09:23AM 52.8210 -14.3030 293° West 450 518 34,000  Level FlightAware
09:24AM 52.8480 -14.4100 293° West 450 518 34,000  Level FlightAware
09:25AM 52.8760 -14.5180 293° West 450 518 34,000  Level FlightAware
09:25AM 52.9030 -14.6260 293° West 450 518 34,000  Level FlightAware
09:26AM 52.9380 -14.7610 293° West 450 518 34,000  Level FlightAware
09:29AM 52.9729 -15.2105 278° West  Level Estimated
09:30AM 52.9863 -15.3905 277° West  Level Estimated
09:31AM 52.9995 -15.5706 277° West  Level Estimated
09:32AM 53.0125 -15.7508 277° West  Level Estimated
09:33AM 53.0251 -15.9311 277° West  Level Estimated
09:34AM 53.0375 -16.1115 277° West  Level Estimated
09:35AM 53.0508 -16.3108 276° West  Level Estimated
09:36AM 53.0638 -16.5101 276° West  Level Estimated
09:37AM 53.0765 -16.7096 276° West  Level Estimated
09:38AM 53.0888 -16.9092 276° West  Level Estimated
09:39AM 53.1009 -17.1089 276° West  Level Estimated
09:40AM 53.1125 -17.3087 276° West  Level Estimated
09:41AM 53.1239 -17.5087 275° West  Level Estimated
09:42AM 53.1349 -17.7087 275° West  Level Estimated
09:43AM 53.1456 -17.9088 275° West  Level Estimated
09:44AM 53.1559 -18.1091 275° West  Level Estimated
09:45AM 53.1659 -18.3094 275° West  Level Estimated
09:46AM 53.1755 -18.5098 275° West  Level Estimated
09:47AM 53.1849 -18.7103 275° West  Level Estimated
09:48AM 53.1939 -18.9109 274° West  Level Estimated
09:49AM 53.2025 -19.1116 274° West  Level Estimated
09:50AM 53.2108 -19.3124 274° West  Level Estimated
09:51AM 54.0000 -20.0000 284° West 481 554 34,000  Level ETMS Enhanced Traffic Management System
09:51AM 53.2182 -19.4975 274° West  Level Estimated
09:52AM 53.2253 -19.6827 274° West  Level Estimated
09:53AM 53.2321 -19.8680 274° West  Level Estimated
09:54AM 53.2386 -20.0536 273° West  Level Estimated
09:55AM 53.2448 -20.2393 273° West  Level Estimated
09:56AM 53.2508 -20.4250 273° West  Level Estimated
09:57AM 54.2137 -21.5554 283° West 481 554 34,000  Level FlightAware Transoceanic
09:58AM 54.2426 -21.7789 282° West 481 554 34,000  Level FlightAware Transoceanic
09:59AM 54.2711 -22.0027 282° West 481 554 34,000  Level FlightAware Transoceanic
10:00AM 54.2992 -22.2268 282° West 481 554 34,000  Level FlightAware Transoceanic
10:01AM 54.3268 -22.4512 282° West 481 554 34,000  Level FlightAware Transoceanic
10:02AM 54.3540 -22.6759 282° West 481 554 34,000  Level FlightAware Transoceanic
10:03AM 54.3809 -22.9009 281° West 481 554 34,000  Level FlightAware Transoceanic
10:04AM 54.4072 -23.1262 281° West 481 554 34,000  Level FlightAware Transoceanic
10:05AM 54.4332 -23.3518 281° West 481 554 34,000  Level FlightAware Transoceanic
10:06AM 54.4588 -23.5777 281° West 481 554 34,000  Level FlightAware Transoceanic
10:07AM 54.4839 -23.8039 281° West 481 554 34,000  Level FlightAware Transoceanic
10:08AM 54.5086 -24.0303 281° West 481 554 34,000  Level FlightAware Transoceanic
10:09AM 54.5329 -24.2570 280° West 481 554 34,000  Level FlightAware Transoceanic
10:10AM 54.5568 -24.4839 280° West 481 554 34,000  Level FlightAware Transoceanic
10:11AM 54.5802 -24.7112 280° West 481 554 34,000  Level FlightAware Transoceanic
10:12AM 54.6032 -24.9387 280° West 481 554 34,000  Level FlightAware Transoceanic
10:13AM 54.6258 -25.1664 280° West 481 554 34,000  Level FlightAware Transoceanic
10:14AM 54.6479 -25.3944 279° West 481 554 34,000  Level FlightAware Transoceanic
10:15AM 54.6697 -25.6227 279° West 481 554 34,000  Level FlightAware Transoceanic
10:16AM 54.6909 -25.8511 279° West 481 554 34,000  Level FlightAware Transoceanic
10:17AM 54.7118 -26.0798 279° West 481 554 34,000  Level FlightAware Transoceanic
10:18AM 54.7322 -26.3088 279° West 481 554 34,000  Level FlightAware Transoceanic
10:19AM 54.7523 -26.5380 279° West 481 554 34,000  Level FlightAware Transoceanic
10:20AM 54.7718 -26.7674 278° West 481 554 34,000  Level FlightAware Transoceanic
10:21AM 54.7910 -26.9970 278° West 481 554 34,000  Level FlightAware Transoceanic
10:22AM 54.8097 -27.2269 278° West 481 554 34,000  Level FlightAware Transoceanic
10:23AM 54.8279 -27.4569 278° West 481 554 34,000  Level FlightAware Transoceanic
10:24AM 54.8458 -27.6872 278° West 481 554 34,000  Level FlightAware Transoceanic
10:25AM 54.8632 -27.9176 277° West 481 554 34,000  Level FlightAware Transoceanic
10:26AM 54.8801 -28.1483 277° West 481 554 34,000  Level FlightAware Transoceanic
10:27AM 54.8966 -28.3791 277° West 481 554 34,000  Level FlightAware Transoceanic
10:28AM 54.9127 -28.6101 277° West 481 554 34,000  Level FlightAware Transoceanic
10:29AM 54.9284 -28.8414 277° West 481 554 34,000  Level FlightAware Transoceanic
10:30AM 54.9436 -29.0728 276° West 481 554 34,000  Level FlightAware Transoceanic
10:31AM 54.9583 -29.3043 276° West 481 554 34,000  Level FlightAware Transoceanic
10:32AM 54.9727 -29.5361 276° West 481 554 34,000  Level FlightAware Transoceanic
10:33AM 54.9865 -29.7680 276° West 481 554 34,000  Level FlightAware Transoceanic
10:34AM 54.9978 -29.9610 276° West  Level FlightAware Approximate
10:35AM 55.0087 -30.1541 276° West  Level FlightAware Approximate
10:36AM 55.0047 -30.1152 274° West  Level FlightAware Approximate
10:37AM 55.0123 -30.3088 274° West  Level FlightAware Approximate
10:38AM 55.0196 -30.5025 274° West  Level FlightAware Approximate
10:39AM 55.0266 -30.6963 274° West  Level FlightAware Approximate
10:40AM 55.0333 -30.8901 274° West  Level FlightAware Approximate
10:41AM 55.0397 -31.0840 273° West  Level FlightAware Approximate
10:42AM 55.0458 -31.2779 273° West  Level FlightAware Approximate
10:43AM 55.0516 -31.4719 273° West  Level FlightAware Approximate
10:44AM 55.0570 -31.6660 273° West  Level FlightAware Approximate
10:45AM 55.0622 -31.8601 273° West  Level FlightAware Approximate
10:46AM 55.0670 -32.0542 273° West  Level FlightAware Approximate
10:47AM 55.0715 -32.2484 272° West  Level FlightAware Approximate
10:48AM 55.0758 -32.4427 272° West  Level FlightAware Approximate
10:49AM 55.0797 -32.6369 272° West  Level FlightAware Approximate
10:50AM 55.0833 -32.8313 272° West  Level FlightAware Approximate
10:51AM 55.0866 -33.0256 272° West  Level FlightAware Approximate
10:52AM 55.0896 -33.2200 272° West  Level FlightAware Approximate
10:53AM 55.0923 -33.4144 271° West  Level FlightAware Approximate
10:54AM 55.0947 -33.6088 271° West  Level FlightAware Approximate
10:55AM 55.0967 -33.8033 271° West  Level FlightAware Approximate
10:56AM 55.0985 -33.9977 271° West  Level FlightAware Approximate
10:57AM 55.0999 -34.1922 271° West  Level FlightAware Approximate
10:58AM 55.1010 -34.3867 271° West  Level FlightAware Approximate
10:59AM 55.1018 -34.5812 271° West  Level FlightAware Approximate
11:00AM 55.1024 -34.7758 270° West  Level FlightAware Approximate
11:01AM 55.1026 -34.9703 270° West  Level FlightAware Approximate
11:02AM 55.1025 -35.1648 270° West  Level FlightAware Approximate
11:03AM 55.1020 -35.3593 270° West  Level FlightAware Approximate
11:04AM 55.1013 -35.5538 270° West  Level FlightAware Approximate
11:05AM 55.1003 -35.7483 270° West  Level FlightAware Approximate
11:06AM 55.0989 -35.9428 269° West  Level FlightAware Approximate
11:07AM 55.0973 -36.1373 269° West  Level FlightAware Approximate
11:08AM 55.0953 -36.3318 269° West  Level FlightAware Approximate
11:09AM 55.0930 -36.5262 269° West  Level FlightAware Approximate
11:10AM 55.0904 -36.7206 269° West  Level FlightAware Approximate
11:11AM 55.0875 -36.9150 269° West  Level FlightAware Approximate
11:12AM 55.0843 -37.1094 268° West  Level FlightAware Approximate
11:13AM 55.0808 -37.3037 268° West  Level FlightAware Approximate
11:14AM 55.0770 -37.4980 268° West  Level FlightAware Approximate
11:15AM 55.0729 -37.6922 268° West  Level FlightAware Approximate
11:16AM 55.0684 -37.8865 268° West  Level FlightAware Approximate
11:17AM 55.0637 -38.0806 268° West  Level FlightAware Approximate
11:18AM 55.0586 -38.2750 267° West  Level FlightAware Approximate
11:19AM 55.0532 -38.4694 267° West  Level FlightAware Approximate
11:20AM 55.0476 -38.6637 267° West  Level FlightAware Approximate
11:21AM 55.0415 -38.8579 267° West  Level FlightAware Approximate
11:22AM 55.0353 -39.0521 267° West  Level FlightAware Approximate
11:23AM 55.0286 -39.2463 267° West  Level FlightAware Approximate
11:24AM 55.0217 -39.4403 267° West  Level FlightAware Approximate
11:25AM 55.0145 -39.6343 266° West  Level FlightAware Approximate
11:26AM 55.0069 -39.8282 266° West  Level FlightAware Approximate
11:27AM 54.9987 -40.0220 264° West  Level FlightAware Approximate
11:28AM 54.9875 -40.2154 264° West  Level FlightAware Approximate
11:29AM 54.9760 -40.4085 264° West  Level FlightAware Approximate
11:30AM 54.9642 -40.6016 264° West  Level FlightAware Approximate
11:31AM 54.9521 -40.7946 264° West  Level FlightAware Approximate
11:32AM 54.9397 -40.9874 264° West  Level FlightAware Approximate
11:33AM 54.9269 -41.1801 264° West  Level FlightAware Approximate
11:34AM 54.9139 -41.3727 263° West  Level FlightAware Approximate
11:35AM 54.9006 -41.5652 263° West  Level FlightAware Approximate
11:36AM 54.8869 -41.7575 263° West  Level FlightAware Approximate
11:37AM 54.8730 -41.9497 263° West  Level FlightAware Approximate
11:38AM 54.8587 -42.1418 263° West  Level FlightAware Approximate
11:39AM 54.8442 -42.3338 263° West  Level FlightAware Approximate
11:40AM 54.8293 -42.5256 262° West  Level FlightAware Approximate
11:41AM 54.8141 -42.7172 262° West  Level FlightAware Approximate
11:42AM 54.7987 -42.9087 262° West  Level FlightAware Approximate
11:43AM 54.7829 -43.1001 262° West  Level FlightAware Approximate
11:44AM 54.7669 -43.2913 262° West  Level FlightAware Approximate
11:45AM 54.7505 -43.4824 262° West  Level FlightAware Approximate
11:46AM 54.7338 -43.6733 261° West  Level FlightAware Approximate
11:47AM 54.7169 -43.8640 261° West  Level FlightAware Approximate
11:48AM 54.6996 -44.0546 261° West  Level FlightAware Approximate
11:49AM 54.6821 -44.2450 261° West  Level FlightAware Approximate
11:50AM 54.6642 -44.4353 261° West  Level FlightAware Approximate
11:51AM 54.6460 -44.6254 261° West  Level FlightAware Approximate
11:52AM 54.6276 -44.8153 261° West  Level FlightAware Approximate
11:53AM 54.6088 -45.0050 260° West  Level FlightAware Approximate
11:54AM 54.5898 -45.1946 260° West  Level FlightAware Approximate
11:55AM 54.5704 -45.3840 260° West  Level FlightAware Approximate
11:56AM 54.5508 -45.5732 260° West  Level FlightAware Approximate
11:57AM 54.5309 -45.7622 260° West  Level FlightAware Approximate
11:58AM 54.5106 -45.9511 260° West  Level FlightAware Approximate
11:59AM 54.4901 -46.1397 259° West  Level FlightAware Approximate
12:00PM 54.4693 -46.3282 259° West  Level FlightAware Approximate
12:01PM 54.4482 -46.5164 259° West  Level FlightAware Approximate
12:02PM 54.4268 -46.7045 259° West  Level FlightAware Approximate
12:03PM 54.4051 -46.8921 259° West  Level FlightAware Approximate
12:04PM 54.3832 -47.0795 259° West  Level FlightAware Approximate
12:05PM 54.3609 -47.2667 259° West  Level FlightAware Approximate
12:06PM 54.3384 -47.4537 258° West  Level FlightAware Approximate
12:07PM 54.3156 -47.6404 258° West  Level FlightAware Approximate
12:08PM 54.2925 -47.8270 258° West  Level FlightAware Approximate
12:09PM 54.2691 -48.0134 258° West  Level FlightAware Approximate
12:10PM 54.2454 -48.1995 258° West  Level FlightAware Approximate
12:11PM 54.2214 -48.3855 258° West  Level FlightAware Approximate
12:12PM 54.1972 -48.5712 257° West  Level FlightAware Approximate
12:13PM 54.1726 -48.7567 257° West  Level FlightAware Approximate
12:14PM 54.1478 -48.9420 257° West  Level FlightAware Approximate
12:15PM 54.1227 -49.1270 257° West  Level FlightAware Approximate
12:16PM 54.0973 -49.3118 257° West  Level FlightAware Approximate
12:17PM 54.0716 -49.4964 257° West  Level FlightAware Approximate
12:17PM 53.2667 -53.2833 249° West 470 541 34,000  Level Gander Center
12:18PM 54.0457 -49.6808 257° West  Level FlightAware Approximate
12:19PM 54.0194 -49.8649 256° West  Level FlightAware Approximate
12:19PM 53.1667 -53.6833 247° West 460 529 34,000  Level Gander Center
12:20PM 53.9893 -50.0469 249° West  Level FlightAware Approximate
12:20PM 53.1333 -53.8667 253° West 460 529 34,000  Level Gander Center
12:21PM 53.9488 -50.2231 249° West  Level FlightAware Approximate
12:21PM 53.0667 -54.0667 241° Southwest 460 529 34,000  Level Gander Center
12:22PM 53.9081 -50.3991 249° West  Level FlightAware Approximate
12:22PM 53.0000 -54.2500 239° Southwest 460 529 34,000  Level Gander Center
12:23PM 52.9333 -54.4167 236° Southwest 460 529 34,000  Level Gander Center
12:24PM 52.8667 -54.6000 239° Southwest 460 529 34,000  Level Gander Center
12:25PM 52.7833 -54.7500 227° Southwest 450 518 34,000 240 Level Gander Center
12:26PM 52.7167 -54.9333 239° Southwest 450 518 34,500 540 Climbing Gander Center
12:27PM 52.6333 -55.1000 231° Southwest 450 518 35,100 600 Climbing Gander Center
12:28PM 52.5667 -55.2500 234° Southwest 460 529 35,800 360 Climbing Gander Center
12:29PM 52.4833 -55.4333 233° Southwest 450 518 35,900 60 Climbing Gander Center
12:30PM 52.4167 -55.6000 237° Southwest 450 518 36,000  Climbing Gander Center
12:31PM 52.3333 -55.7500 228° Southwest 440 506 36,000  Level Gander Center
12:32PM 52.2500 -55.9167 231° Southwest 450 518 36,000  Level Gander Center
12:33PM 52.1833 -56.1000 239° Southwest 450 518 36,000  Level Gander Center
12:34PM 52.1000 -56.2500 228° Southwest 440 506 36,000  Level Gander Center
12:35PM 52.0333 -56.4167 237° Southwest 450 518 36,000  Level Gander Center
12:36PM 51.9500 -56.5667 228° Southwest 450 518 36,000  Level Gander Center
12:37PM 51.8833 -56.7333 237° Southwest 440 506 36,000  Level Gander Center
12:38PM 51.8000 -56.9000 231° Southwest 450 518 36,000  Level Gander Center
12:39PM 51.7333 -57.0333 231° Southwest 440 506 36,000  Level Gander Center
12:40PM 51.6500 -57.2167 234° Southwest 450 518 36,000  Level Gander Center
12:41PM 51.5833 -57.3500 231° Southwest 440 506 36,000  Level Gander Center
12:42PM 51.5333 -57.4333 226° Southwest 440 506 36,000 300 Level Gander Center
12:42PM 51.5000 -57.5167 237° Southwest 440 506 36,300 420 Climbing Gander Center
12:43PM 51.4167 -57.6833 231° Southwest 450 518 36,700 600 Climbing Gander Center
12:44PM 51.3333 -57.8333 228° Southwest 450 518 37,600 600 Climbing Gander Center
12:45PM 51.2667 -58.0000 237° Southwest 440 506 38,000 180 Climbing Gander Center
12:46PM 51.1833 -58.1333 225° Southwest 440 506 38,000  Level Gander Center
12:47PM 51.1000 -58.3000 232° Southwest 440 506 38,000 -60 Level Gander Center
12:48PM 51.0167 -58.4333 225° Southwest 440 506 37,900  Descending Gander Center
12:49PM 50.9500 -58.6000 238° Southwest 440 506 38,000  Climbing Gander Center
12:50PM 50.8833 -58.7333 232° Southwest 440 506 38,000  Level Gander Center
12:51PM 50.8000 -58.9000 232° Southwest 440 506 38,000  Level Gander Center
12:52PM 50.7167 -59.0333 225° Southwest 440 506 38,000  Level Gander Center
12:53PM 50.6333 -59.2000 232° Southwest 430 495 38,000  Level Moncton Center
12:54PM 50.5667 -59.3333 232° Southwest 440 506 38,000  Level Gander Center
12:55PM 50.4833 -59.5000 232° Southwest 440 506 38,000  Level Gander Center
12:56PM 50.4167 -59.6333 232° Southwest 440 506 38,000 -60 Level Gander Center
12:57PM 50.3333 -59.7667 226° Southwest 440 506 37,900  Descending Gander Center
12:58PM 50.2500 -59.9167 229° Southwest 440 506 38,000  Climbing Gander Center
12:59PM 50.1833 -60.0500 232° Southwest 440 506 38,000  Level Gander Center
01:00PM 50.1000 -60.2167 232° Southwest 430 495 38,000  Level Gander Center
01:01PM 50.0167 -60.3500 226° Southwest 440 506 38,000  Level Gander Center
01:02PM 49.9333 -60.5000 229° Southwest 440 506 38,000  Level Gander Center
01:03PM 49.8500 -60.6333 226° Southwest 440 506 38,000  Level Gander Center
01:04PM 49.7833 -60.7833 235° Southwest 440 506 38,000  Level Gander Center
01:05PM 49.7000 -60.9167 226° Southwest 430 495 38,000  Level Gander Center
01:06PM 49.6167 -61.0833 232° Southwest 440 506 38,000  Level Gander Center
01:07PM 49.5333 -61.2000 222° Southwest 430 495 38,000  Level Gander Center
01:08PM 49.4667 -61.3333 232° Southwest 440 506 38,000  Level Gander Center
01:09PM 49.3833 -61.4833 230° Southwest 430 495 38,000  Level Gander Center
01:10PM 49.3000 -61.6167 226° Southwest 430 495 38,000  Level Gander Center
01:11PM 49.2167 -61.7667 230° Southwest 440 506 38,000  Level Gander Center
01:12PM 49.1333 -61.9167 230° Southwest 430 495 38,000  Level Moncton Center
01:13PM 49.0667 -62.0500 233° Southwest 430 495 38,000  Level Gander Center
01:14PM 48.9833 -62.1667 223° Southwest 430 495 38,000 -60 Level Gander Center
01:15PM 48.9000 -62.3000 226° Southwest 430 495 37,900  Descending Gander Center
01:16PM 48.8167 -62.4500 230° Southwest 440 506 38,000  Climbing Gander Center
01:17PM 48.7333 -62.5667 223° Southwest 430 495 38,000  Level Gander Center
01:18PM 48.6667 -62.7000 233° Southwest 430 495 38,000  Level Gander Center
01:19PM 48.5667 -62.8500 225° Southwest 430 495 38,000 -60 Level Gander Center
01:20PM 48.4833 -63.0000 230° Southwest 430 495 37,900  Descending Gander Center
01:21PM 48.4167 -63.1167 229° Southwest 440 506 38,000  Climbing Gander Center
01:22PM 48.3333 -63.2500 227° Southwest 430 495 38,000  Level Gander Center
01:23PM 48.2667 -63.3833 233° Southwest 430 495 38,000  Level Gander Center
01:24PM 48.1667 -63.5167 222° Southwest 440 506 38,000  Level Gander Center
01:25PM 48.0833 -63.6333 223° Southwest 430 495 38,000  Level Gander Center
01:26PM 48.0000 -63.7833 230° Southwest 430 495 38,000  Level Gander Center
01:27PM 47.9167 -63.9167 227° Southwest 440 506 38,000  Level Gander Center
01:28PM 47.8500 -64.0500 233° Southwest 440 506 38,000 -60 Level Gander Center
01:29PM 47.7667 -64.1667 223° Southwest 430 495 37,900  Descending Gander Center
01:30PM 47.6667 -64.3167 225° Southwest 430 495 38,000  Climbing Moncton Center
01:31PM 47.5833 -64.4500 227° Southwest 430 495 38,000 -60 Level Moncton Center
01:32PM 47.5000 -64.5667 223° Southwest 430 495 37,900  Descending Moncton Center
01:33PM 47.4167 -64.7000 227° Southwest 430 495 38,000  Climbing Moncton Center
01:34PM 47.3333 -64.8167 224° Southwest 430 495 38,000  Level Moncton Center
01:35PM 47.2500 -64.9667 231° Southwest 430 495 38,000  Level Moncton Center
01:36PM 47.1667 -65.0833 224° Southwest 430 495 38,000  Level Moncton Center
01:37PM 47.0833 -65.2000 224° Southwest 430 495 38,000  Level Moncton Center
01:38PM 47.0000 -65.3333 228° Southwest 430 495 38,000  Level Moncton Center
01:39PM 46.9000 -65.4833 226° Southwest 430 495 38,000  Level Moncton Center
01:40PM 46.8167 -65.6000 224° Southwest 430 495 38,000  Level Moncton Center
01:41PM 46.7333 -65.7167 224° Southwest 430 495 38,000  Level Moncton Center
01:42PM 46.6500 -65.8333 224° Southwest 430 495 38,000  Level Moncton Center
01:48PM 46.1710 -66.5760 224° Southwest 431 496 38,000  Level FlightAware
01:49PM 46.0710 -66.7190 225° Southwest 433 498 38,000  Level FlightAware
01:50PM 45.9700 -66.8620 225° Southwest 433 498 38,000  Level FlightAware
01:52PM 45.8490 -67.0330 225° Southwest 434 499 38,000  Level FlightAware
01:53PM 45.7480 -67.1750 224° Southwest 429 494 38,000  Level FlightAware
01:54PM 45.6490 -67.3120 224° Southwest 430 495 38,000  Level FlightAware
01:55PM 45.5540 -67.4450 224° Southwest 432 497 38,000  Level FlightAware
01:57PM 45.4300 -67.6160 224° Southwest 435 501 38,000  Level FlightAware
01:58PM 45.3260 -67.7610 224° Southwest 446 513 38,000  Level FlightAware
01:59PM 45.2290 -67.9130 228° Southwest 440 506 38,000  Level FlightAware
02:00PM 45.1660 -68.0130 228° Southwest 442 509 38,000  Level FlightAware
02:00PM 45.1120 -68.0980 228° Southwest 441 507 38,000  Level FlightAware
02:01PM 45.0550 -68.1870 228° Southwest 442 509 38,000  Level FlightAware
02:02PM 44.9920 -68.2840 227° Southwest 443 510 38,000  Level FlightAware
02:02PM 44.9530 -68.3450 228° Southwest 443 510 38,000  Level FlightAware
02:03PM 44.9090 -68.4120 227° Southwest 442 509 38,000  Level FlightAware
02:04PM 44.8430 -68.5140 228° Southwest 448 516 38,000  Level FlightAware
02:04PM 44.7870 -68.6010 228° Southwest 449 517 38,000  Level FlightAware
02:05PM 44.7230 -68.6990 227° Southwest 450 518 38,000  Level FlightAware
02:06PM 44.6600 -68.7950 227° Southwest 450 518 38,000  Level FlightAware
02:06PM 44.6050 -68.8790 227° Southwest 450 518 38,000  Level FlightAware
02:07PM 44.5450 -68.9690 227° Southwest 449 517 38,000  Level FlightAware
02:08PM 44.4850 -69.0600 227° Southwest 449 517 38,000  Level FlightAware
02:08PM 44.4260 -69.1490 227° Southwest 444 511 38,000  Level FlightAware
02:09PM 44.3720 -69.2300 227° Southwest 442 509 38,000  Level FlightAware
02:10PM 44.3080 -69.3250 227° Southwest 442 509 38,000  Level FlightAware
02:11PM 44.2530 -69.4080 227° Southwest 442 509 38,000  Level FlightAware
02:11PM 44.1900 -69.5010 227° Southwest 439 505 38,000  Level FlightAware
02:12PM 44.1320 -69.5870 227° Southwest 437 503 38,000  Level FlightAware
02:13PM 44.0730 -69.6750 227° Southwest 439 505 38,000  Level FlightAware
02:13PM 44.0170 -69.7560 226° Southwest 439 505 38,000  Level FlightAware
02:14PM 43.9600 -69.8400 227° Southwest 440 506 38,000  Level FlightAware
02:15PM 43.8960 -69.9340 227° Southwest 440 506 38,000  Level FlightAware
02:15PM 43.8490 -70.0030 227° Southwest 442 509 38,000  Level FlightAware
02:16PM 43.7830 -70.0990 226° Southwest 438 504 38,000  Level FlightAware
02:17PM 43.7300 -70.1760 226° Southwest 436 502 38,000  Level FlightAware
02:18PM 43.6670 -70.2670 226° Southwest 431 496 38,000  Level FlightAware
02:18PM 43.6050 -70.3570 226° Southwest 430 495 38,000  Level FlightAware
02:19PM 43.5500 -70.4360 226° Southwest 430 495 38,000  Level FlightAware
02:20PM 43.4930 -70.5170 226° Southwest 430 495 38,000  Level FlightAware
02:20PM 43.4340 -70.6030 227° Southwest 432 497 38,000  Level FlightAware
02:21PM 43.3820 -70.6880 230° Southwest 428 493 38,000  Level FlightAware
02:22PM 43.3320 -70.7740 231° Southwest 428 493 38,000  Level FlightAware
02:22PM 43.2760 -70.8700 231° Southwest 429 494 38,000  Level FlightAware
02:23PM 43.2210 -70.9650 232° Southwest 432 497 38,000  Level FlightAware
02:24PM 43.1710 -71.0500 231° Southwest 435 501 38,000  Level FlightAware
02:25PM 43.1200 -71.1360 231° Southwest 432 497 38,000  Level FlightAware
02:25PM 43.0630 -71.2330 231° Southwest 425 489 38,000 -120 Level FlightAware
02:26PM 43.0140 -71.3150 231° Southwest 423 487 37,900  Descending FlightAware
02:27PM 42.9650 -71.3980 231° Southwest 416 479 38,000 60 Climbing FlightAware
02:27PM 42.9110 -71.4880 231° Southwest 415 478 38,000  Level FlightAware
02:28PM 42.8630 -71.5680 231° Southwest 415 478 38,000  Level FlightAware
02:29PM 42.8070 -71.6600 230° Southwest 413 475 38,000  Level FlightAware
02:29PM 42.7550 -71.7370 227° Southwest 413 475 38,000  Level FlightAware
02:30PM 42.7020 -71.8140 227° Southwest 409 471 38,000  Level FlightAware
02:31PM 42.6460 -71.8980 228° Southwest 411 473 38,000  Level FlightAware
02:32PM 42.5960 -71.9710 227° Southwest 411 473 38,000  Level FlightAware
02:32PM 42.5360 -72.0590 227° Southwest 410 472 38,000  Level FlightAware
02:33PM 42.4850 -72.1330 227° Southwest 411 473 38,000  Level FlightAware
02:34PM 42.4320 -72.2100 227° Southwest 412 474 38,000  Level FlightAware
02:34PM 42.3740 -72.2950 227° Southwest 414 476 38,000  Level FlightAware
02:35PM 42.3220 -72.3710 227° Southwest 416 479 38,000  Level FlightAware
02:36PM 42.2630 -72.4570 227° Southwest 415 478 38,000  Level FlightAware
02:36PM 42.2100 -72.5330 227° Southwest 414 476 38,000  Level FlightAware
02:37PM 42.1580 -72.6080 227° Southwest 414 476 38,000  Level FlightAware
02:38PM 42.1190 -72.6630 226° Southwest 414 476 38,000  Level FlightAware
02:38PM 42.0650 -72.7400 227° Southwest 413 475 38,000  Level FlightAware
02:39PM 42.0090 -72.8210 227° Southwest 412 474 38,000  Level FlightAware
02:40PM 41.9590 -72.8930 227° Southwest 411 473 38,000  Level FlightAware
02:40PM 41.9040 -72.9700 226° Southwest 413 475 38,000  Level FlightAware
02:41PM 41.8723 -73.0155 227° Southwest 415 478 38,000  Level FlightAware ADS-B
02:41PM 41.8273 -73.0793 227° Southwest 415 478 38,000  Level FlightAware ADS-B
02:42PM 41.7749 -73.1535 227° Southwest 417 480 38,000  Level FlightAware ADS-B
02:43PM 41.7259 -73.2225 226° Southwest 418 481 38,000  Level FlightAware ADS-B
02:43PM 41.6728 -73.2970 226° Southwest 418 481 38,000  Level FlightAware ADS-B
02:44PM 41.6149 -73.3819 228° Southwest 414 476 38,000  Level FlightAware ADS-B
02:45PM 41.5774 -73.4411 230° Southwest 413 475 38,000  Level FlightAware ADS-B
02:45PM 41.5246 -73.5230 229° Southwest 413 475 38,000  Level FlightAware ADS-B
02:46PM 41.4870 -73.5806 229° Southwest 412 474 38,000  Level FlightAware ADS-B
02:46PM 41.4475 -73.6410 229° Southwest 411 473 38,000  Level FlightAware ADS-B
02:47PM 41.4066 -73.7033 229° Southwest 411 473 38,000  Level FlightAware ADS-B
02:47PM 41.3666 -73.7642 229° Southwest 413 475 38,000  Level FlightAware ADS-B
02:48PM 41.3260 -73.8257 229° Southwest 412 474 38,000  Level FlightAware ADS-B
02:48PM 41.2909 -73.8776 228° Southwest 410 472 38,000  Level FlightAware ADS-B
02:48PM 41.2871 -73.8830 227° Southwest 409 471 38,000  Level FlightAware ADS-B
02:49PM 41.2458 -73.9435 228° Southwest 408 470 38,000  Level FlightAware ADS-B
02:50PM 41.1989 -74.0124 228° Southwest 407 468 38,000  Level FlightAware ADS-B
02:50PM 41.1535 -74.0789 228° Southwest 406 467 38,000  Level FlightAware ADS-B
02:51PM 41.1142 -74.1382 229° Southwest 404 465 38,000  Level FlightAware ADS-B
02:51PM 41.0704 -74.2111 231° Southwest 403 464 38,000  Level FlightAware ADS-B
02:52PM 41.0350 -74.2693 231° Southwest 403 464 38,000  Level FlightAware ADS-B
02:52PM 41.0003 -74.3254 231° Southwest 403 464 38,000  Level FlightAware ADS-B
02:53PM 40.9636 -74.3846 231° Southwest 404 465 38,000  Level FlightAware ADS-B
02:53PM 40.9143 -74.4638 231° Southwest 404 465 38,000  Level FlightAware ADS-B
02:54PM 40.8786 -74.5211 231° Southwest 404 465 38,000  Level FlightAware ADS-B
02:55PM 40.8372 -74.5874 230° Southwest 403 464 38,000  Level FlightAware ADS-B
02:55PM 40.8005 -74.6460 230° Southwest 405 466 38,000  Level FlightAware ADS-B
02:56PM 40.7615 -74.7082 230° Southwest 406 467 38,000  Level FlightAware ADS-B
02:56PM 40.7254 -74.7656 230° Southwest 406 467 38,000  Level FlightAware ADS-B
02:57PM 40.6887 -74.8240 230° Southwest 406 467 38,000  Level FlightAware ADS-B
02:57PM 40.6525 -74.8816 230° Southwest 406 467 38,000  Level FlightAware ADS-B
02:58PM 40.6160 -74.9392 230° Southwest 408 470 38,000  Level FlightAware ADS-B
02:58PM 40.5802 -74.9956 230° Southwest 408 470 38,000  Level FlightAware ADS-B
02:59PM 40.5379 -75.0625 230° Southwest 410 472 38,000  Level FlightAware ADS-B
02:59PM 40.5011 -75.1212 231° Southwest 411 473 38,000  Level FlightAware ADS-B
03:00PM 40.4648 -75.1786 230° Southwest 411 473 38,000  Level FlightAware ADS-B
03:00PM 40.4281 -75.2365 230° Southwest 411 473 38,000  Level FlightAware ADS-B
03:01PM 40.3915 -75.2944 230° Southwest 411 473 38,000  Level FlightAware ADS-B
03:01PM 40.3548 -75.3523 230° Southwest 413 475 38,000  Level FlightAware ADS-B
03:02PM 40.3195 -75.4080 230° Southwest 413 475 38,000  Level FlightAware ADS-B
03:02PM 40.2815 -75.4677 230° Southwest 413 475 38,000  Level FlightAware ADS-B
03:03PM 40.2433 -75.5276 230° Southwest 413 475 38,000  Level FlightAware ADS-B
03:03PM 40.2267 -75.5542 231° Southwest 412 474 38,000  Level FlightAware ADS-B
03:03PM 40.2052 -75.5933 234° Southwest 411 473 38,000  Level FlightAware ADS-B
03:04PM 40.1737 -75.6565 237° Southwest 411 473 38,000  Level FlightAware ADS-B
03:04PM 40.1416 -75.7211 237° Southwest 413 475 38,000  Level FlightAware ADS-B
03:05PM 40.1092 -75.7851 237° Southwest 414 476 38,000  Level FlightAware ADS-B
03:05PM 40.0779 -75.8470 237° Southwest 416 479 38,000  Level FlightAware ADS-B
03:06PM 40.0439 -75.9143 237° Southwest 417 480 38,000  Level FlightAware ADS-B
03:06PM 40.0115 -75.9781 236° Southwest 418 481 38,000  Level FlightAware ADS-B
03:07PM 39.9781 -76.0438 236° Southwest 419 482 38,000  Level FlightAware ADS-B
03:07PM 39.9457 -76.1075 236° Southwest 420 483 38,000  Level FlightAware ADS-B
03:08PM 39.9125 -76.1726 236° Southwest 421 484 38,000  Level FlightAware ADS-B
03:08PM 39.8792 -76.2376 236° Southwest 420 483 38,000  Level FlightAware ADS-B
03:09PM 39.8444 -76.3055 236° Southwest 417 480 38,000  Level FlightAware ADS-B
03:09PM 39.8130 -76.3663 236° Southwest 417 480 38,000  Level FlightAware ADS-B
03:10PM 39.7786 -76.4332 236° Southwest 418 481 38,000  Level FlightAware ADS-B
03:10PM 39.7458 -76.4968 236° Southwest 421 484 38,000  Level FlightAware ADS-B
03:11PM 39.7126 -76.5612 236° Southwest 424 488 38,000  Level FlightAware ADS-B
03:12PM 39.6784 -76.6274 236° Southwest 426 490 38,000  Level FlightAware ADS-B
03:12PM 39.6445 -76.6924 236° Southwest 428 493 38,000  Level FlightAware ADS-B
03:13PM 39.6069 -76.7647 236° Southwest 429 494 38,000  Level FlightAware ADS-B
03:13PM 39.5727 -76.8304 236° Southwest 431 496 38,000  Level FlightAware ADS-B
03:14PM 39.5391 -76.8950 236° Southwest 432 497 38,000  Level FlightAware ADS-B
03:14PM 39.5187 -76.9310 234° Southwest 435 501 38,000  Level FlightAware ADS-B
03:14PM 39.4956 -76.9656 229° Southwest 438 504 38,000  Level FlightAware ADS-B
03:15PM 39.4513 -77.0214 224° Southwest 443 510 38,000  Level FlightAware ADS-B
03:15PM 39.4032 -77.0724 219° Southwest 445 512 38,000  Level FlightAware ADS-B
03:16PM 39.3535 -77.1263 220° Southwest 443 510 38,000  Level FlightAware ADS-B
03:16PM 39.3060 -77.1772 220° Southwest 444 511 38,000  Level FlightAware ADS-B
03:17PM 39.2514 -77.2346 219° Southwest 445 512 38,000  Level FlightAware ADS-B
03:17PM 39.2026 -77.2857 219° Southwest 446 513 38,000  Level FlightAware ADS-B
03:18PM 39.1522 -77.3383 219° Southwest 444 511 38,000  Level FlightAware ADS-B
03:18PM 39.1024 -77.3901 219° Southwest 444 511 38,000  Level FlightAware ADS-B
03:19PM 39.0528 -77.4416 219° Southwest 443 510 38,000  Level FlightAware ADS-B
03:19PM 38.9976 -77.4989 219° Southwest 442 509 38,000  Level FlightAware ADS-B
03:20PM 38.9377 -77.5607 219° Southwest 442 509 38,000  Level FlightAware ADS-B
03:21PM 38.8889 -77.6112 219° Southwest 443 510 38,000  Level FlightAware ADS-B
03:21PM 38.8386 -77.6630 219° Southwest 445 512 38,000  Level FlightAware ADS-B
03:22PM 38.7829 -77.7204 219° Southwest 447 514 38,000  Level FlightAware ADS-B
03:22PM 38.7199 -77.7850 219° Southwest 449 517 38,000  Level FlightAware ADS-B
03:24PM 38.6150 -77.9100 223° Southwest 436 502 38,000  Level FlightAware
03:24PM 38.5650 -77.9940 233° Southwest 437 503 38,000  Level FlightAware
03:25PM 38.6130 -77.9190 51° Northeast 438 504 38,000  Level FlightAware
03:26PM 38.4660 -78.1630 232° Southwest 438 504 38,000  Level FlightAware
03:26PM 38.4120 -78.2540 233° Southwest 437 503 38,000  Level FlightAware
03:27PM 38.3620 -78.3390 233° Southwest 437 503 38,000  Level FlightAware
03:28PM 38.2880 -78.4630 233° Southwest 434 499 38,000  Level FlightAware
03:30PM 38.1670 -78.6650 233° Southwest 423 487 38,000  Level FlightAware
03:31PM 38.1080 -78.7630 233° Southwest 425 489 38,000  Level FlightAware
03:31PM 38.0450 -78.8690 233° Southwest 406 467 38,000  Level FlightAware
03:32PM 38.0070 -78.9340 233° Southwest 406 467 38,000  Level FlightAware
03:34PM 37.8390 -79.1910 230° Southwest 423 487 38,000  Level FlightAware
03:35PM 37.7610 -79.3010 228° Southwest 417 480 38,000  Level FlightAware
03:36PM 37.6900 -79.4010 228° Southwest 417 480 38,000  Level FlightAware
03:37PM 37.6440 -79.4630 227° Southwest 417 480 38,000  Level FlightAware
03:38PM 37.5770 -79.5540 227° Southwest 426 490 38,000  Level FlightAware
03:38PM 37.5320 -79.6160 228° Southwest 426 490 38,000  Level FlightAware
03:39PM 37.4670 -79.7060 228° Southwest 38,000  Level FlightAware
03:40PM 37.4200 -79.7700 227° Southwest 427 491 38,000  Level FlightAware
03:40PM 37.3740 -79.8320 227° Southwest 427 491 38,000  Level FlightAware
03:41PM 37.3170 -79.9090 227° Southwest 427 491 38,000  Level FlightAware
03:42PM 37.2710 -79.9710 227° Southwest 427 491 38,000  Level FlightAware
03:42PM 37.2250 -80.0330 227° Southwest 427 491 38,000  Level FlightAware
03:43PM 37.1800 -80.0940 227° Southwest 427 491 38,000  Level FlightAware
03:44PM 37.1340 -80.1560 227° Southwest 427 491 38,000  Level FlightAware
03:44PM 37.0880 -80.2180 227° Southwest 427 491 38,000  Level FlightAware
03:45PM 37.0310 -80.2950 227° Southwest 427 491 38,000  Level FlightAware
03:46PM 36.9960 -80.3410 226° Southwest 427 491 38,000  Level FlightAware
03:46PM 36.9510 -80.4020 227° Southwest 427 491 38,000  Level FlightAware
03:47PM 36.9050 -80.4640 227° Southwest 427 491 38,000  Level FlightAware
03:48PM 36.8590 -80.5250 227° Southwest 427 491 38,000  Level FlightAware
03:48PM 36.8130 -80.5870 227° Southwest 427 491 38,000  Level FlightAware
03:49PM 36.7670 -80.6480 227° Southwest 427 491 38,000 -60 Level FlightAware
03:50PM 36.5550 -80.9297 227° Southwest 425 489 37,900  Descending Atlanta Center
03:51PM 36.4761 -81.0361 227° Southwest 430 495 38,000  Climbing Atlanta Center
03:57PM 36.0102 -81.6437 227° Southwest 431 496 38,000  Level FlightAware ADS-B
03:57PM 35.9668 -81.6997 226° Southwest 430 495 38,000  Level FlightAware ADS-B
03:58PM 35.9255 -81.7529 226° Southwest 429 494 38,000  Level FlightAware ADS-B
03:58PM 35.8773 -81.8147 226° Southwest 426 490 38,000 -120 Level FlightAware ADS-B
03:59PM 35.8277 -81.8784 226° Southwest 428 493 37,900 -600 Descending FlightAware ADS-B
04:00PM 35.7655 -81.9581 226° Southwest 431 496 37,200 -960 Descending FlightAware ADS-B
04:00PM 35.7228 -82.0125 226° Southwest 434 499 36,700 -960 Descending FlightAware ADS-B
04:01PM 35.6788 -82.0688 226° Southwest 436 502 36,200 -1,020 Descending FlightAware ADS-B
04:01PM 35.6323 -82.1279 226° Southwest 438 504 35,600 -1,080 Descending FlightAware ADS-B
04:02PM 35.5896 -82.1823 226° Southwest 441 507 35,100 -600 Descending FlightAware ADS-B
04:02PM 35.5466 -82.2368 226° Southwest 440 506 35,000 -600 Descending FlightAware ADS-B
04:03PM 35.5047 -82.2894 226° Southwest 440 506 34,500 -1,020 Descending FlightAware ADS-B
04:03PM 35.4578 -82.3418 222° Southwest 446 513 34,000 -1,020 Descending FlightAware ADS-B
04:04PM 35.4094 -82.3948 222° Southwest 447 514 33,500 -1,020 Descending FlightAware ADS-B
04:04PM 35.3631 -82.4466 222° Southwest 449 517 33,000 -540 Descending FlightAware ADS-B
04:05PM 35.3161 -82.4990 222° Southwest 447 514 33,000  Level FlightAware ADS-B
04:06PM 35.2618 -82.5596 222° Southwest 446 513 33,000  Level FlightAware ADS-B
04:06PM 35.2101 -82.6173 222° Southwest 447 514 33,000  Level FlightAware ADS-B
04:07PM 35.1587 -82.6745 222° Southwest 445 512 33,000  Level FlightAware ADS-B
04:07PM 35.1100 -82.7285 222° Southwest 447 514 33,000 -420 Level FlightAware ADS-B
04:08PM 35.0625 -82.7810 222° Southwest 447 514 32,600 -900 Descending FlightAware ADS-B
04:08PM 35.0164 -82.8321 222° Southwest 449 517 32,100 -1,140 Descending FlightAware ADS-B
04:09PM 34.9700 -82.8834 222° Southwest 448 516 31,500 -1,620 Descending FlightAware ADS-B
04:09PM 34.9235 -82.9346 222° Southwest 449 517 30,500 -2,100 Descending FlightAware ADS-B
04:10PM 34.8713 -82.9922 222° Southwest 442 509 29,300 -2,220 Descending FlightAware ADS-B
04:10PM 34.8248 -83.0434 222° Southwest 440 506 28,100 -2,280 Descending FlightAware ADS-B
04:11PM 34.7782 -83.0945 222° Southwest 435 501 27,000 -2,160 Descending FlightAware ADS-B
04:11PM 34.7192 -83.1592 222° Southwest 430 495 25,600 -2,160 Descending FlightAware ADS-B
04:12PM 34.6706 -83.2124 222° Southwest 426 490 24,400 -2,220 Descending FlightAware ADS-B
04:13PM 34.6240 -83.2633 222° Southwest 423 487 23,200 -2,280 Descending FlightAware ADS-B
04:13PM 34.5796 -83.3116 222° Southwest 419 482 22,100 -2,100 Descending FlightAware ADS-B
04:14PM 34.5328 -83.3625 222° Southwest 408 470 21,000 -1,980 Descending FlightAware ADS-B
04:14PM 34.4690 -83.4320 222° Southwest 395 455 19,400 -2,100 Descending FlightAware
04:15PM 34.4060 -83.4990 221° Southwest 395 455 17,700 -2,160 Descending FlightAware
04:16PM 34.3540 -83.5560 222° Southwest 387 445 16,400 -2,160 Descending FlightAware
04:16PM 34.3030 -83.6120 222° Southwest 376 433 15,000 -2,160 Descending FlightAware
04:17PM 34.2410 -83.6780 221° Southwest 374 430 13,400 -1,620 Descending FlightAware
04:18PM 34.1880 -83.7360 222° Southwest 363 418 12,600 -900 Descending FlightAware
04:19PM 34.1410 -83.7860 221° Southwest 365 420 12,200 -600 Descending FlightAware
04:19PM 34.0980 -83.8320 222° Southwest 362 417 11,900 -1,080 Descending FlightAware
04:20PM 34.0310 -83.9040 222° Southwest 355 409 10,700 -1,380 Descending FlightAware
04:21PM 33.9800 -83.9580 221° Southwest 345 397 9,800 -900 Descending FlightAware
04:21PM 33.9600 -83.9710 208° Southwest 349 402 9,800  Level FlightAware
04:21PM 33.9420 -83.9760 193° South 357 411 9,800  Level FlightAware
04:21PM 33.9330 -83.9760 180° South 354 407 9,800 -480 Level FlightAware
04:22PM 33.8820 -83.9730 177° South 294 338 9,500 -720 Descending FlightAware
04:22PM 33.8680 -83.9730 180° South 292 336 9,300 -960 Descending FlightAware
04:23PM 33.8270 -83.9700 177° South 275 316 8,800 -1,200 Descending FlightAware
04:23PM 33.7870 -83.9670 176° South 271 312 8,000 -1,200 Descending FlightAware
04:24PM 33.7520 -83.9650 177° South 258 297 7,700 -1,140 Descending FlightAware
04:24PM 33.7003 -83.9639 177° South 273 314 6,800 -1,020 Descending Atlanta Center
04:25PM 33.6522 -84.0014 213° Southwest 232 267 6,100 -420 Descending Atlanta Center
04:26PM 33.6294 -84.0736 249° West 216 249 6,000 -420 Descending Atlanta Center
04:27PM 33.6333 -84.1500 274° West 239 275 5,400 -1,140 Descending Atlanta TRACON
04:28PM 33.6333 -84.2167 270° West 231 266 4,000 -1,200 Descending Atlanta TRACON
04:29PM 33.6333 -84.2833 270° West 196 226 3,100 -960 Descending Atlanta TRACON
04:30PM 33.6333 -84.3500 270° West 163 188 2,100 -960 Descending Atlanta TRACON
04:31PM 33.6333 -84.4000 270° West 144 166 1,300 -840 Descending Atlanta TRACON
04:33PM 33.6367 -84.4279 270° West  Level Estimated
04:40PM 33.6367 -84.4279 64° Northeast  Level Estimated